GSLV R/B, 65054

Orbit data source: Space-Track

GSLV R/B, 65054 is space debris in SSO originally from a launch on Wed, 30 Jul 2025 UTC launched from the Sirharikota (SRI). Debris objects in space refer to the collection of defunct objects orbiting the Earth. Examples of debris include non-operational satellites, rocket bodies, and fragments generated from explosions, collisions, or faulty payload assembly.

Loading next visibility...
Identifier
65054, 2025-163B
Orbit
SSO
Country
Flag of ININ / IND
Related business
Manufacturer
ISRO
Mission
Spacecraft
Bus & Motor
CUS15, Unknown motor
Mass
2,630 kg wet, 2,630 kg dry
Launch date (UTC)
2025-07-30 (1 year ago)
Launch vehicle
Unknown
Launch site
Sirharikota (SRI)
Object type
Payload
Rocket body
Debris
Shape & HBR
Cyl, 8.0 m
Radar Cross Section
22.211 m², Large (>1 m²)

Expand to show TLE details & history
Last TLE update: 12 hours ago

TLE from 12 hours ago
0 GSLV R/B
1 65054U 25163B   26208.50685560  .00000314  00000-0  96713-4 0  9998
2 65054  98.4338  39.4341 0010749 289.6672  70.3360 14.47862968 52373
Epoch: 2026-07-27T12:09Z
TLE epoch observation values (Epoch: 2026-07-27T12:09:52.323Z)
Latitude
-0.0001°
Longitude
-88.22334°
Altitude
733.033 km
Speed
7.49 km/s
True Right ascension
02h 37m 44s
True Declination
0° 00' 00"
Sunlit
Object was in daylight at epoch
Visualization orbit readout
Latitude
Unknown
Longitude
Unknown
Altitude
Unknown
Speed
Unknown
Apparent Right ascension
Unknown
Apparent Declination
Unknown
Sunlit
N/A
Visualization observer readout
Local Sidereal Time
13:09:46
Azimuth
Unknown
Elevation
Unknown
Doppler factor
Unknown
Orbital elements
Apogee altitude
737.385 km
Perigee altitude
722.105 km
Semi-major axis
7,107.882 km
Eccentricity
0.00107
Inclination
98.4338°
RAAN
39.4341°
Arg. of periapsis
289.6672°
True anomaly
70.45204°
Mean anomaly
70.336°
Eccentric anomaly
70.39402°
Mean motion
3.62187 °/min
Orbital period
99.4 mins
BSTAR
0.000096713
Loading maneuver chart data...
Computing Atmospheric mass density...
Loading historical data...
Loading historical data...
Loading historical data...
Loading historical data...
Loading historical data...
Loading historical data...
Loading historical data...
Other satellites on launch #163 in the year 2025 (2025-07-30 UTC)

Documentation

Showing up to 5 results
|